TimeCST,TemperatureF,Dew PointF,Humidity,Sea Level PressureIn,VisibilityMPH,Wind Direction,Wind SpeedMPH,Gust SpeedMPH,PrecipitationIn,Events,Conditions,WindDirDegrees,DateUTC
12:15 AM,27.0,22.3,83,30.10,10.0,NW,15.0,-,N/A,,Overcast,310,2013-03-03 06:15:00
1:15 AM,26.4,21.9,83,30.10,7.0,NW,16.1,-,N/A,,Overcast,310,2013-03-03 07:15:00
1:35 AM,26.1,22.1,85,30.09,7.0,NW,12.7,20.7,N/A,,Overcast,310,2013-03-03 07:35:00
1:55 AM,25.7,22.1,86,30.09,4.0,NW,15.0,19.6,N/A,,Overcast,310,2013-03-03 07:55:00
2:15 AM,25.5,22.1,87,30.09,4.0,NW,11.5,17.3,N/A,,Overcast,310,2013-03-03 08:15:00
2:35 AM,25.3,21.9,87,30.08,5.0,NW,13.8,-,N/A,,Overcast,310,2013-03-03 08:35:00
2:55 AM,25.0,21.7,87,30.08,3.0,NW,10.4,-,N/A,,Overcast,310,2013-03-03 08:55:00
3:15 AM,24.8,21.9,89,30.08,4.0,NW,9.2,-,N/A,,Overcast,310,2013-03-03 09:15:00
3:35 AM,24.8,21.9,89,30.08,4.0,NW,9.2,-,N/A,,Overcast,310,2013-03-03 09:35:00
3:55 AM,24.8,21.7,88,30.08,5.0,WNW,8.1,-,N/A,,Overcast,300,2013-03-03 09:55:00
4:15 AM,24.8,21.0,86,30.08,5.0,WNW,9.2,-,N/A,,Overcast,300,2013-03-03 10:15:00
4:35 AM,24.6,20.8,86,30.08,5.0,WNW,6.9,-,N/A,,Overcast,300,2013-03-03 10:35:00
5:15 AM,24.3,20.8,87,30.08,7.0,WNW,10.4,-,N/A,,Overcast,290,2013-03-03 11:15:00
5:35 AM,24.3,20.8,87,30.08,5.0,WNW,10.4,-,N/A,,Overcast,300,2013-03-03 11:35:00
5:55 AM,24.3,20.8,87,30.08,5.0,WNW,9.2,-,N/A,,Overcast,290,2013-03-03 11:55:00
6:35 AM,23.7,21.0,89,30.09,3.0,WNW,8.1,-,N/A,,Overcast,290,2013-03-03 12:35:00
7:15 AM,23.0,20.7,91,30.10,2.5,West,5.8,-,N/A,,Overcast,270,2013-03-03 13:15:00
7:35 AM,23.4,20.8,90,30.10,2.5,WNW,6.9,-,N/A,,Overcast,290,2013-03-03 13:35:00
8:15 AM,23.5,20.8,89,30.10,2.0,WNW,5.8,-,N/A,,Overcast,300,2013-03-03 14:15:00
8:35 AM,23.9,21.4,90,30.10,2.0,WNW,5.8,-,N/A,,Overcast,290,2013-03-03 14:35:00
8:55 AM,24.3,22.3,92,30.10,1.2,NW,5.8,-,N/A,,Overcast,310,2013-03-03 14:55:00
9:15 AM,24.6,22.8,93,30.10,1.5,NW,4.6,-,N/A,,Overcast,310,2013-03-03 15:15:00
9:35 AM,25.2,23.4,93,30.10,2.5,NW,3.5,-,N/A,,Overcast,310,2013-03-03 15:35:00
9:55 AM,26.2,24.1,92,30.10,1.2,Calm,Calm,-,N/A,,Overcast,0,2013-03-03 15:55:00
10:15 AM,27.3,25.2,92,30.10,5.0,North,3.5,-,N/A,,Overcast,350,2013-03-03 16:15:00
10:35 AM,28.4,25.5,89,30.10,5.0,NNW,4.6,-,N/A,,Overcast,340,2013-03-03 16:35:00
10:55 AM,30.0,25.7,84,30.09,10.0,North,9.2,-,N/A,,Mostly Cloudy,350,2013-03-03 16:55:00
11:15 AM,30.9,25.5,80,30.09,10.0,NNW,12.7,-,N/A,,Mostly Cloudy,330,2013-03-03 17:15:00
11:35 AM,30.9,22.8,72,30.08,10.0,North,12.7,-,N/A,,Mostly Cloudy,350,2013-03-03 17:35:00
11:55 AM,30.4,20.8,68,30.08,10.0,NNW,9.2,-,N/A,,Mostly Cloudy,340,2013-03-03 17:55:00
12:15 PM,31.1,19.8,63,30.08,10.0,North,11.5,-,N/A,,Mostly Cloudy,350,2013-03-03 18:15:00
12:35 PM,31.5,18.3,58,30.07,10.0,NNW,9.2,-,N/A,,Mostly Cloudy,340,2013-03-03 18:35:00
12:55 PM,31.6,17.2,55,30.07,10.0,NNW,11.5,-,N/A,,Mostly Cloudy,330,2013-03-03 18:55:00
1:15 PM,32.2,16.3,52,30.06,10.0,NNW,9.2,-,N/A,,Scattered Clouds,330,2013-03-03 19:15:00
1:35 PM,32.2,15.8,51,30.05,10.0,WNW,6.9,10.4,N/A,,Scattered Clouds,300,2013-03-03 19:35:00
1:55 PM,32.2,14.7,49,30.05,10.0,NW,11.5,-,N/A,,Clear,320,2013-03-03 19:55:00
2:15 PM,32.2,14.7,49,30.05,10.0,NNW,10.4,-,N/A,,Clear,340,2013-03-03 20:15:00
2:35 PM,32.2,12.6,44,30.05,10.0,NNW,9.2,-,N/A,,Clear,340,2013-03-03 20:35:00
2:55 PM,32.0,12.0,44,30.05,10.0,NW,11.5,19.6,N/A,,Clear,310,2013-03-03 20:55:00
3:15 PM,32.0,12.9,45,30.05,10.0,NW,10.4,16.1,N/A,,Clear,320,2013-03-03 21:15:00
3:35 PM,32.0,12.9,45,30.05,10.0,NNW,9.2,-,N/A,,Clear,340,2013-03-03 21:35:00
3:55 PM,32.0,12.7,45,30.06,10.0,NW,8.1,-,N/A,,Clear,320,2013-03-03 21:55:00
4:15 PM,31.6,11.8,44,30.06,10.0,NNW,6.9,-,N/A,,Clear,340,2013-03-03 22:15:00
4:35 PM,31.3,12.4,46,30.06,10.0,NNW,8.1,-,N/A,,Clear,340,2013-03-03 22:35:00
4:55 PM,30.9,13.5,48,30.06,10.0,NW,8.1,-,N/A,,Clear,320,2013-03-03 22:55:00
5:15 PM,30.2,13.5,50,30.06,10.0,NNW,9.2,-,N/A,,Clear,330,2013-03-03 23:15:00
5:35 PM,29.1,14.9,55,30.06,10.0,NNW,8.1,-,N/A,,Clear,340,2013-03-03 23:35:00
5:55 PM,27.9,15.8,61,30.07,10.0,North,6.9,-,N/A,,Clear,350,2013-03-03 23:55:00
6:15 PM,26.6,16.9,67,30.08,10.0,North,6.9,-,N/A,,Clear,350,2013-03-04 00:15:00
6:35 PM,26.1,17.1,69,30.08,10.0,North,8.1,-,N/A,,Clear,350,2013-03-04 00:35:00
6:55 PM,25.7,16.9,69,30.08,10.0,North,6.9,-,N/A,,Clear,350,2013-03-04 00:55:00
7:15 PM,25.0,17.1,72,30.08,10.0,North,4.6,-,N/A,,Clear,360,2013-03-04 01:15:00
7:35 PM,23.9,17.4,76,30.08,10.0,North,4.6,-,N/A,,Clear,10,2013-03-04 01:35:00
7:55 PM,23.7,16.9,75,30.09,10.0,North,4.6,-,N/A,,Clear,10,2013-03-04 01:55:00
8:15 PM,23.5,16.7,75,30.09,10.0,North,4.6,-,N/A,,Clear,360,2013-03-04 02:15:00
8:35 PM,23.7,17.4,77,30.09,10.0,NNE,4.6,-,N/A,,Clear,20,2013-03-04 02:35:00
8:55 PM,23.9,17.2,76,30.09,10.0,NNE,3.5,-,N/A,,Clear,20,2013-03-04 02:55:00
9:15 PM,24.1,17.4,76,30.09,10.0,NNE,3.5,-,N/A,,Clear,20,2013-03-04 03:15:00
9:35 PM,23.7,16.9,75,30.09,10.0,Calm,Calm,-,N/A,,Clear,0,2013-03-04 03:35:00
9:55 PM,23.9,18.3,79,30.09,10.0,Calm,Calm,-,N/A,,Clear,0,2013-03-04 03:55:00
10:15 PM,24.1,20.7,87,30.09,10.0,Calm,Calm,-,N/A,,Clear,0,2013-03-04 04:15:00
10:35 PM,23.9,20.3,86,30.09,10.0,Calm,Calm,-,N/A,,Clear,0,2013-03-04 04:35:00
10:55 PM,23.5,20.5,88,30.10,10.0,Calm,Calm,-,N/A,,Clear,0,2013-03-04 04:55:00
11:15 PM,23.4,21.2,91,30.10,10.0,Calm,Calm,-,N/A,,Clear,0,2013-03-04 05:15:00
11:35 PM,23.0,21.0,92,30.10,10.0,Calm,Calm,-,N/A,,Clear,0,2013-03-04 05:35:00
11:55 PM,22.5,20.5,92,30.10,10.0,SW,3.5,-,N/A,,Clear,220,2013-03-04 05:55:00